Location: Twentynine Palms Airport
(34.1316°N, 115.9458°W)
Time: 12:13:50
(UTC-07:00)

Amateur Radio Satellites - All Passes

Search period start: 30 July 2014 11:43
Search period end: 31 July 2014 11:43
Location: Twentynine Palms Airport, 34.1316°N, 115.9458°W

Satellite Date Start Highest point End Downlink Frequencies (MHz)
Time Altitude Azimuth
SO-50 30 Jul 11:53:47 11:58:13 81° 118° (ESE) 12:02:45 436.795 FM
Oscar 19 30 Jul 12:18:02 12:20:30 14° 64° (ENE) 12:22:58 437.125 CW, 437.150 USB
Oscar 16 30 Jul 12:44:38 12:48:53 27° 69° (ENE) 12:53:09 437.025 USB, Beacon 2401.1428
ITAMSAT 1 30 Jul 13:09:28 13:13:16 21° 67° (ENE) 13:17:04 435.822 SSB
JAS-1B 30 Jul 13:19:50 13:27:12 29° 61° (ENE) 13:35:07 435.800 - 435.900 CW/SSB
Uribyol 2 30 Jul 13:27:32 13:32:08 33° 70° (ENE) 13:36:45 436.500 FM
AO-27 30 Jul 13:28:11 13:32:47 32° 70° (ENE) 13:37:23 436.795 MHz FM
SO-50 30 Jul 13:38:08 13:39:22 11° 315° (NW) 13:40:36 436.795 FM
TMSAT-1 30 Jul 13:38:36 13:39:34 11° 62° (ENE) 13:40:31 436.925 FM
RS-15 30 Jul 13:39:23 13:50:34 74° 300° (WNW) 14:01:31 29.354 - 29.394 USB, Beacon 29.352 USB
UOSAT-12 30 Jul 13:45:25 13:49:58 78° 117° (ESE) 13:54:39 437.025 FM, 437.400 FM
Oscar 19 30 Jul 13:54:14 13:59:16 61° 259° (W) 14:04:20 437.125 CW, 437.150 USB
AO-Echo 30 Jul 13:57:05 14:02:19 65° 75° (ENE) 14:07:36 ?
Gurwin Techsat 1B 30 Jul 14:00:17 14:04:37 26° 68° (ENE) 14:08:57 435.225 FM
KITSAT 1 30 Jul 14:23:34 14:30:49 35° 53° (NE) 14:37:59 435.175 FM
Oscar 16 30 Jul 14:23:42 14:28:06 29° 263° (W) 14:32:32 437.025 USB, Beacon 2401.1428
ITAMSAT 1 30 Jul 14:47:33 14:52:26 40° 261° (W) 14:57:20 435.822 SSB
Uribyol 2 30 Jul 15:07:25 15:11:35 24° 264° (W) 15:15:47 436.500 FM
AO-27 30 Jul 15:08:00 15:12:15 25° 264° (W) 15:16:31 436.795 MHz FM
JAS-1B 30 Jul 15:08:08 15:16:45 67° 259° (W) 15:26:32 435.800 - 435.900 CW/SSB
TMSAT-1 30 Jul 15:13:25 15:18:43 83° 257° (WSW) 15:24:03 436.925 FM
Saudisat 1A 30 Jul 15:23:14 15:26:25 19° 51° (NE) 15:29:34 436.775 MHz
UOSAT-12 30 Jul 15:28:53 15:30:41 12° 315° (NW) 15:32:30 437.025 FM, 437.400 FM
AO-7 30 Jul 15:30:10 15:37:57 45° 65° (ENE) 15:45:44 29.400 - 29.500 MHz
AO-Echo 30 Jul 15:39:12 15:41:26 13° 269° (W) 15:43:41 ?
Gurwin Techsat 1B 30 Jul 15:39:41 15:44:24 32° 263° (W) 15:49:09 435.225 FM
Uosat F 30 Jul 15:56:01 16:00:55 55° 73° (ENE) 16:05:51 435.120 FM
RS-15 30 Jul 15:57:33 16:05:08 20° 326° (NW) 16:12:43 29.354 - 29.394 USB, Beacon 29.352 USB
KITSAT 1 30 Jul 16:18:41 16:26:20 48° 250° (WSW) 16:33:56 435.175 FM
JAS-2 30 Jul 16:48:55 16:54:12 21° 64° (ENE) 16:59:16 435.800 - 435.900 CW/SSB, 435.910 FM
OPAL 30 Jul 16:57:29 17:02:36 89° 287° (WNW) 17:07:46 ?
Saudisat 1A 30 Jul 17:02:02 17:06:07 38° 246° (WSW) 17:10:10 436.775 MHz
JAS-1B 30 Jul 17:07:42 17:08:57 10° 277° (W) 17:10:14 435.800 - 435.900 CW/SSB
Hamsat 30 Jul 17:10:57 17:13:57 20° 70° (ENE) 17:16:59 145.90 MHz
AO-7 30 Jul 17:23:15 17:30:43 36° 261° (W) 17:38:14 29.400 - 29.500 MHz
Uosat F 30 Jul 17:37:30 17:39:59 14° 267° (W) 17:42:28 435.120 FM
RS-15 30 Jul 18:23:44 18:24:10 10° 4° (N) 18:24:37 29.354 - 29.394 USB, Beacon 29.352 USB
JAS-2 30 Jul 18:30:42 18:38:32 75° 258° (WSW) 18:45:56 435.800 - 435.900 CW/SSB, 435.910 FM
Hamsat 30 Jul 18:46:11 18:49:43 27° 264° (W) 18:53:17 145.90 MHz
STRAND 1 30 Jul 19:23:48 19:28:53 70° 102° (ESE) 19:33:57 ?
SO-67 30 Jul 19:29:41 19:33:03 51° 261° (W) 19:36:27 435.3500 MHz FM
HO-68 30 Jul 19:55:49 20:01:42 28° 64° (ENE) 20:07:34 435.675 MHz FM
JAS-2 30 Jul 20:22:44 20:24:14 11° 271° (W) 20:25:44 435.800 - 435.900 CW/SSB, 435.910 FM
SO-50 30 Jul 20:29:13 20:33:18 28° 54° (NE) 20:37:25 436.795 FM
RS-15 30 Jul 20:33:55 20:42:36 25° 40° (NE) 20:51:26 29.354 - 29.394 USB, Beacon 29.352 USB
MaSat-1 30 Jul 20:46:12 20:50:06 79° 293° (WNW) 20:54:43 437.345 MHz
STRAND 1 30 Jul 21:05:35 21:07:26 12° 297° (WNW) 21:09:16 ?
UKube-1 30 Jul 21:08:51 21:13:09 64° 75° (ENE) 21:17:30 145.840 MHz, 145.915 MHz
ISS 30 Jul 21:22:53 21:25:15 18° 128° (SE) 21:27:38 145.800 FM
HO-68 30 Jul 21:42:10 21:49:01 49° 259° (W) 21:55:55 435.675 MHz FM
Oscar 11 30 Jul 21:51:51 21:56:09 84° 258° (WSW) 22:00:28 145.825 FM, Beacon 2401.500 USB
SO-50 30 Jul 22:09:40 22:13:48 29° 248° (WSW) 22:17:58 436.795 FM
FUNcube-1 30 Jul 22:19:03 22:23:21 68° 76° (ENE) 22:27:35 145.950 - 145.970 MHz USB
UOSAT-12 30 Jul 22:19:06 22:23:02 25° 52° (NE) 22:26:54 437.025 FM, 437.400 FM
RS-15 30 Jul 22:45:21 22:56:30 90° 63° (ENE) 23:08:07 29.354 - 29.394 USB, Beacon 29.352 USB
PCSat 30 Jul 22:56:23 22:59:57 18° 105° (ESE) 23:03:32 145.825 MHz
ISS 30 Jul 22:58:43 23:01:46 33° 322° (NW) 23:04:50 145.800 FM
Oscar 10/S400 30 Jul 23:04:29 23:28:21 75° 172° (S) 08:59:26 145.825 - 145.975 CW/USB, Beacon 145.810 USB
UOSAT-12 30 Jul 23:59:01 00:03:10 31° 248° (WSW) 00:07:14 437.025 FM, 437.400 FM
Sapphire 31 Jul 00:04:17 00:09:39 77° 114° (ESE) 00:15:04 437.095 MHz 1200 baud AX-25 AFSK
PCSat 31 Jul 00:37:41 00:42:54 49° 300° (WNW) 00:48:10 145.825 MHz
RS-15 31 Jul 01:00:34 01:07:24 19° 259° (W) 01:14:25 29.354 - 29.394 USB, Beacon 29.352 USB
Oscar 16 31 Jul 01:01:36 01:03:47 13° 92° (E) 01:05:57 437.025 USB, Beacon 2401.1428
Uribyol 2 31 Jul 01:45:10 01:48:12 16° 93° (E) 01:51:14 436.500 FM
AO-27 31 Jul 01:46:11 01:49:09 15° 93° (E) 01:52:06 436.795 MHz FM
Sapphire 31 Jul 01:50:52 01:53:40 14° 311° (NW) 01:56:29 437.095 MHz 1200 baud AX-25 AFSK
AO-Echo 31 Jul 02:09:10 02:13:23 27° 96° (E) 02:17:28 ?
Oscar 19 31 Jul 02:09:31 02:14:40 65° 102° (ESE) 02:19:48 437.125 CW, 437.150 USB
Gurwin Techsat 1B 31 Jul 02:21:30 02:24:03 14° 92° (E) 02:26:35 435.225 FM
OPAL 31 Jul 02:34:40 02:35:44 11° 61° (ENE) 02:36:49 ?
Oscar 16 31 Jul 02:38:22 02:43:28 61° 286° (WNW) 02:48:33 437.025 USB, Beacon 2401.1428
JAS-1B 31 Jul 02:59:56 03:08:47 56° 99° (E) 03:16:11 435.800 - 435.900 CW/SSB
ITAMSAT 1 31 Jul 03:03:54 03:09:05 83° 284° (WNW) 03:14:15 435.822 SSB
Uribyol 2 31 Jul 03:22:56 03:27:54 50° 287° (WNW) 03:32:51 436.500 FM
AO-27 31 Jul 03:23:54 03:28:54 51° 287° (WNW) 03:33:53 436.795 MHz FM
PANSAT 31 Jul 03:31:23 03:34:29 23° 166° (SSE) 03:37:36 not established
TMSAT-1 31 Jul 03:33:13 03:38:24 54° 100° (E) 03:43:33 436.925 FM
AO-7 31 Jul 03:37:58 03:42:47 16° 93° (E) 03:47:33 29.400 - 29.500 MHz
AO-Echo 31 Jul 03:47:53 03:52:02 27° 291° (WNW) 03:56:04 ?
Oscar 19 31 Jul 03:51:04 03:53:24 13° 296° (WNW) 03:55:45 437.125 CW, 437.150 USB
Gurwin Techsat 1B 31 Jul 03:59:07 04:04:20 60° 286° (WNW) 04:09:32 435.225 FM
Uosat F 31 Jul 04:08:17 04:12:12 23° 96° (E) 04:16:06 435.120 FM
OPAL 31 Jul 04:09:00 04:13:56 76° 256° (WSW) 04:18:54 ?
KITSAT 1 31 Jul 04:47:39 04:54:54 38° 108° (ESE) 05:02:10 435.175 FM
JAS-1B 31 Jul 04:51:07 04:58:35 30° 299° (WNW) 05:05:12 435.800 - 435.900 CW/SSB
MaSat-1 31 Jul 05:09:45 05:12:21 14° 52° (NE) 05:14:52 437.345 MHz
PANSAT 31 Jul 05:10:45 05:14:18 35° 178° (S) 05:17:51 not established
TMSAT-1 31 Jul 05:14:39 05:17:49 16° 295° (WNW) 05:20:59 436.925 FM
AO-7 31 Jul 05:27:57 05:36:18 84° 288° (WNW) 05:44:35 29.400 - 29.500 MHz
Saudisat 1A 31 Jul 05:29:06 05:29:53 10° 107° (ESE) 05:30:41 436.775 MHz
ISS 31 Jul 05:30:08 05:33:23 47° 40° (NE) 05:36:38 145.800 FM
Uosat F 31 Jul 05:46:32 05:50:59 33° 290° (WNW) 05:55:25 435.120 FM
JAS-2 31 Jul 05:48:01 05:51:02 15° 90° (E) 05:53:57 435.800 - 435.900 CW/SSB, 435.910 FM
Hamsat 31 Jul 06:34:45 06:39:03 68° 101° (E) 06:43:22 145.90 MHz
STRAND 1 31 Jul 06:35:55 06:41:01 69° 75° (ENE) 06:46:08 ?
KITSAT 1 31 Jul 06:42:32 06:50:07 43° 305° (NW) 06:57:46 435.175 FM
MaSat-1 31 Jul 06:45:04 06:50:19 75° 249° (WSW) 06:55:06 437.345 MHz
PANSAT 31 Jul 06:50:49 06:54:08 27° 191° (S) 06:57:26 not established
SO-67 31 Jul 06:58:35 07:00:22 13° 94° (E) 07:02:09 435.3500 MHz FM
Saudisat 1A 31 Jul 07:04:33 07:08:54 61° 301° (WNW) 07:13:18 436.775 MHz
ISS 31 Jul 07:08:12 07:09:46 13° 234° (SW) 07:11:20 145.800 FM
AO-7 31 Jul 07:23:16 07:27:51 16° 306° (NW) 07:32:25 29.400 - 29.500 MHz
JAS-2 31 Jul 07:31:05 07:36:38 52° 288° (WNW) 07:41:43 435.800 - 435.900 CW/SSB, 435.910 FM
STRAND 1 31 Jul 08:19:15 08:20:36 11° 268° (W) 08:21:57 ?
SO-67 31 Jul 08:30:33 08:33:26 25° 287° (WNW) 08:36:18 435.3500 MHz FM
PANSAT 31 Jul 08:32:28 08:33:46 11° 203° (SSW) 08:35:05 not established
Sapphire 31 Jul 08:56:30 09:01:09 28° 56° (NE) 09:05:46 437.095 MHz 1200 baud AX-25 AFSK
UKube-1 31 Jul 09:02:28 09:04:53 15° 94° (E) 09:07:17 145.840 MHz, 145.915 MHz
HO-68 31 Jul 09:13:52 09:20:30 41° 99° (E) 09:27:07 435.675 MHz FM
PCSat 31 Jul 09:29:10 09:34:32 59° 62° (ENE) 09:39:51 145.825 MHz
Oscar 11 31 Jul 09:43:52 09:47:20 23° 96° (E) 09:50:48 145.825 FM, Beacon 2401.500 USB
FUNcube-1 31 Jul 10:13:00 10:15:44 17° 95° (E) 10:18:29 145.950 - 145.970 MHz USB
UKube-1 31 Jul 10:37:10 10:41:12 39° 288° (WNW) 10:45:13 145.840 MHz, 145.915 MHz
Sapphire 31 Jul 10:39:43 10:44:33 34° 251° (WSW) 10:49:21 437.095 MHz 1200 baud AX-25 AFSK
SO-50 31 Jul 10:41:46 10:44:52 19° 109° (ESE) 10:48:00 436.795 FM
RS-15 31 Jul 10:57:33 11:03:47 17° 100° (E) 11:09:53 29.354 - 29.394 USB, Beacon 29.352 USB
HO-68 31 Jul 11:01:48 11:07:59 33° 295° (WNW) 11:14:11 435.675 MHz FM
PCSat 31 Jul 11:14:26 11:17:22 15° 256° (WSW) 11:20:18 145.825 MHz
Oscar 11 31 Jul 11:19:54 11:23:25 25° 289° (WNW) 11:26:56 145.825 FM, Beacon 2401.500 USB
